366P/Spacewatch (2025)

Japanese version
Home page
Updated on September 5, 2024

---------------------------------------------------------------------

* Profile

* Orbital Elements

Epoch 2025 Feb. 14.0 TT = JDT 2460720.5
T 2025 Jan. 30.88973 TT                                 MPCW
q   2.2799703            (2000.0)            P               Q
n   0.15052632     Peri.  152.95865     -0.71761654     +0.68109934
a   3.4999440      Node    70.76065     -0.66357710     -0.60533821
e   0.3485695      Incl.    8.85654     -0.21140469     -0.41190938
P   6.55
From 72 observations 2005 Apr. 4-2018 Apr. 20, mean residual 0".5.

* Magnitudes Graph

        m1 = 15.2 + 5 log d + 10.0 log r

---------------------------------------------------------------------

The orbital elements are published on M.P.E.C. 2019-J142.
The magnitudes graphs are made with Comet for Windows.

---------------------------------------------------------------------

Copyright(C) Seiichi Yoshida (comet@aerith.net). All rights reserved.